TimeCDT,TemperatureF,Dew PointF,Humidity,Sea Level PressureIn,VisibilityMPH,Wind Direction,Wind SpeedMPH,Gust SpeedMPH,PrecipitationIn,Events,Conditions,WindDirDegrees,DateUTC
1:15 AM,59.0,48.6,68,29.96,10.0,North,4.6,-,N/A,,Clear,360,2012-10-19 06:15:00
1:35 AM,59.4,48.4,67,29.96,10.0,North,3.5,-,N/A,,Clear,350,2012-10-19 06:35:00
1:55 AM,58.5,48.6,70,29.96,10.0,North,3.5,-,N/A,,Clear,360,2012-10-19 06:55:00
2:15 AM,59.0,48.4,68,29.95,10.0,Calm,Calm,-,N/A,,Clear,0,2012-10-19 07:15:00
2:35 AM,57.7,48.4,71,29.95,10.0,Calm,Calm,-,N/A,,Clear,0,2012-10-19 07:35:00
2:55 AM,56.8,48.2,73,29.95,10.0,North,3.5,-,N/A,,Clear,360,2012-10-19 07:55:00
3:15 AM,56.7,47.1,70,29.95,10.0,North,3.5,-,N/A,,Clear,350,2012-10-19 08:15:00
3:35 AM,57.2,46.6,68,29.95,10.0,NNW,4.6,-,N/A,,Clear,340,2012-10-19 08:35:00
3:55 AM,56.3,46.8,70,29.95,10.0,North,4.6,-,N/A,,Clear,350,2012-10-19 08:55:00
4:15 AM,55.9,46.6,71,29.95,10.0,North,3.5,-,N/A,,Clear,360,2012-10-19 09:15:00
4:35 AM,55.8,46.8,72,29.95,10.0,Calm,Calm,-,N/A,,Clear,0,2012-10-19 09:35:00
4:55 AM,56.3,46.8,70,29.95,10.0,Calm,Calm,-,N/A,,Clear,0,2012-10-19 09:55:00
5:15 AM,55.6,46.9,73,29.96,10.0,Calm,Calm,-,N/A,,Clear,0,2012-10-19 10:15:00
5:35 AM,53.2,47.7,81,29.97,10.0,Calm,Calm,-,N/A,,Clear,0,2012-10-19 10:35:00
5:55 AM,53.6,47.3,79,29.97,10.0,Calm,Calm,-,N/A,,Clear,0,2012-10-19 10:55:00
6:00 AM,53.6,46.4,77,29.97,10.0,Calm,Calm,-,N/A,,Clear,0,2012-10-19 11:00:00
6:50 AM,51.8,46.4,82,29.97,10.0,Calm,Calm,-,N/A,,Clear,0,2012-10-19 11:50:00
7:55 AM,51.8,48.2,88,29.97,10.0,Calm,Calm,-,N/A,,Clear,0,2012-10-19 12:55:00
8:50 AM,59.0,48.2,67,29.99,10.0,Calm,Calm,-,N/A,,Clear,0,2012-10-19 13:50:00
9:50 AM,68.0,46.4,46,30.01,10.0,Calm,Calm,-,N/A,,Clear,0,2012-10-19 14:50:00
10:50 AM,73.4,39.2,29,30.01,10.0,WNW,6.9,-,N/A,,Clear,290,2012-10-19 15:50:00
11:50 AM,77.0,35.6,22,30.00,10.0,NNW,10.4,16.1,N/A,,Clear,340,2012-10-19 16:50:00
12:50 PM,78.8,30.2,17,29.99,10.0,WNW,12.7,-,N/A,,Clear,300,2012-10-19 17:50:00
1:50 PM,78.8,33.8,20,29.96,10.0,West,12.7,19.6,N/A,,Clear,280,2012-10-19 18:50:00
2:50 PM,80.6,33.8,18,29.94,10.0,NW,11.5,-,N/A,,Clear,310,2012-10-19 19:50:00
3:50 PM,80.6,30.2,16,29.92,10.0,NW,13.8,16.1,N/A,,Clear,310,2012-10-19 20:50:00
4:46 PM,80.6,32.0,17,29.92,10.0,WNW,8.1,-,N/A,,Clear,300,2012-10-19 21:46:00
5:48 PM,78.8,33.8,20,29.92,10.0,WNW,6.9,-,N/A,,Clear,290,2012-10-19 22:48:00
6:45 PM,71.6,39.2,31,29.92,10.0,WNW,4.6,-,N/A,,Clear,290,2012-10-19 23:45:00
7:45 PM,68.0,42.8,40,29.94,10.0,Calm,Calm,-,N/A,,Clear,0,2012-10-20 00:45:00
8:45 PM,62.6,46.4,55,29.94,10.0,Calm,Calm,-,N/A,,Clear,0,2012-10-20 01:45:00
9:45 PM,59.0,48.2,67,29.94,10.0,Calm,Calm,-,N/A,,Clear,0,2012-10-20 02:45:00
9:49 PM,59.0,48.2,67,29.94,10.0,Calm,Calm,-,N/A,,Clear,0,2012-10-20 02:49:00
10:15 PM,59.2,48.7,68,29.94,10.0,Calm,Calm,-,N/A,,Clear,0,2012-10-20 03:15:00
10:35 PM,58.8,49.1,70,29.94,10.0,Calm,Calm,-,N/A,,Clear,0,2012-10-20 03:35:00
10:55 PM,58.3,49.3,72,29.95,10.0,Calm,Calm,-,N/A,,Clear,0,2012-10-20 03:55:00
11:15 PM,55.4,49.8,81,29.95,10.0,Calm,Calm,-,N/A,,Clear,0,2012-10-20 04:15:00
11:35 PM,55.8,50.4,82,29.95,10.0,Calm,Calm,-,N/A,,Clear,0,2012-10-20 04:35:00
11:55 PM,55.6,49.8,81,29.95,10.0,Calm,Calm,-,N/A,,Clear,0,2012-10-20 04:55:00